Cork, Ireland

1:07 PM IST on September 22, 2017 (GMT +0100)
Cork

Weather History for EICK - December, 2012

Change the Weather History Date:

Sunday, December 9, 2012

  Actual Average Record
Temperature  
Mean Temperature 43 °F -  
Max Temperature 46 °F 47 °F 53 °F (1997)
Min Temperature 40 °F 38 °F 32 °F (2010)
Degree Days  
Heating Degree Days 22    
Moisture  
Dew Point 42 °F    
Average Humidity 94    
Maximum Humidity 100    
Minimum Humidity 87    
Precipitation  
Precipitation 0.00 in 0.18 in - ()
Sea Level Pressure  
Sea Level Pressure 30.25 in    
Wind  
Wind Speed 8 mph ()    
Max Wind Speed 127 mph    
Max Gust Speed -    
Visibility 6.9 miles    
Events      
Averages and records for this station are not official NWS values.
T = Trace of Precipitation, MM = Missing Value Source: Averaged Metar Reports

Daily Weather History Graph

Daily Weather History Graph

Search for Another Location

Airport or City:

Trip Planner

Search our weather history database for the weather conditions in past years. The results will help you decide how hot, cold, wet, or windy it might be!

Date:

Astronomy

Dec. 09, 2012 Rise Set
Actual Time 8:29 AM GMT 4:23 PM GMT
Civil Twilight 7:49 AM GMT 5:03 PM GMT
Nautical Twilight 7:05 AM GMT 5:46 PM GMT
Astronomical Twilight 6:24 AM GMT 6:27 PM GMT
Moon 3:21 AM GMT (12/9) 1:43 PM GMT (12/9)
Length of Visible Light 9h 14m
Length of Day
7h 53m
Waning Crescent, 20% of the Moon is Illuminated
Dec 9
Waning Crescent
Dec 13
New
Dec 20
First Quarter
Dec 28
Full
Jan 5
Last Quarter

Hourly Weather History & Observations

Time (GMT) Temp. Windchill Dew Point Humidity Pressure Visibility Wind Dir Wind Speed Gust Speed Precip Events Conditions
12:00 AM 42.8 °F 38.0 °F 41.0 °F 93% 30.33 in 6.2 mi WSW 8.1 mph - N/A   Mostly Cloudy
12:30 AM 41.0 °F 37.1 °F 41.0 °F 100% 30.33 in 6.2 mi SW 5.8 mph - N/A   Mostly Cloudy
1:00 AM 41.0 °F 36.4 °F 41.0 °F 100% 30.33 in 6.2 mi WSW 6.9 mph - N/A   Mostly Cloudy
1:30 AM 41.0 °F 37.1 °F 41.0 °F 100% 30.33 in 6.2 mi WSW 5.8 mph - N/A   Mostly Cloudy
2:00 AM 41.0 °F 36.4 °F 41.0 °F 100% 30.33 in 6.2 mi West 6.9 mph - N/A   Mostly Cloudy
2:30 AM 42.8 °F 39.3 °F 41.0 °F 93% 30.33 in 6.2 mi WNW 5.8 mph - N/A   Mostly Cloudy
3:00 AM 42.8 °F 39.3 °F 41.0 °F 93% 30.33 in 6.2 mi WSW 5.8 mph - N/A   Mostly Cloudy
3:30 AM 41.0 °F 39.0 °F 41.0 °F 100% 30.30 in 6.2 mi SW 3.5 mph - N/A   Mostly Cloudy
4:00 AM 42.8 °F 38.6 °F 41.0 °F 93% 30.30 in 6.2 mi WSW 6.9 mph - N/A   Mostly Cloudy
4:30 AM 41.0 °F 37.1 °F 41.0 °F 100% 30.30 in 6.2 mi SW 5.8 mph - N/A   Mostly Cloudy
5:00 AM 42.8 °F 39.3 °F 41.0 °F 93% 30.30 in 6.2 mi SW 5.8 mph - N/A   Mostly Cloudy
5:30 AM 42.8 °F 38.6 °F 41.0 °F 93% 30.27 in 6.2 mi WSW 6.9 mph - N/A   Mostly Cloudy
6:00 AM 43 °F - 41 °F 92% 30.30 in 19 mi West 8.9 mph - -   Mostly Cloudy
6:00 AM 42.8 °F 38.0 °F 41.0 °F 93% 30.27 in 6.2 mi West 8.1 mph - N/A   Mostly Cloudy
6:30 AM 42.8 °F 39.3 °F 41.0 °F 93% 30.27 in 6.2 mi WSW 5.8 mph - N/A   Mostly Cloudy
7:00 AM 42.8 °F 38.6 °F 42.8 °F 100% 30.27 in 6.2 mi West 6.9 mph - N/A   Light Drizzle
7:30 AM 42.8 °F 38.6 °F 42.8 °F 100% 30.27 in 6.2 mi West 6.9 mph - N/A   Mostly Cloudy
8:00 AM 42.8 °F 38.0 °F 42.8 °F 100% 30.27 in 6.2 mi West 8.1 mph - N/A   Mostly Cloudy
8:30 AM 42.8 °F 39.3 °F 42.8 °F 100% 30.27 in 6.2 mi WSW 5.8 mph - N/A   Mostly Cloudy
9:00 AM 42.8 °F 38.6 °F 42.8 °F 100% 30.27 in 6.2 mi SW 6.9 mph - N/A   Mostly Cloudy
9:30 AM 42.8 °F 38.6 °F 42.8 °F 100% 30.27 in 6.2 mi WSW 6.9 mph - N/A   Mostly Cloudy
10:00 AM 44.6 °F 40.7 °F 42.8 °F 93% 30.27 in 6.2 mi SW 6.9 mph - N/A   Mostly Cloudy
10:30 AM 44.6 °F - 42.8 °F 93% 30.27 in 3.7 mi WSW 126.6 mph - N/A   Mostly Cloudy
11:00 AM 44.6 °F 40.2 °F 44.6 °F 100% 30.27 in 6.2 mi WSW 8.1 mph - N/A   Mostly Cloudy
11:30 AM 46.4 °F 41.5 °F 44.6 °F 93% 30.27 in 6.2 mi WSW 10.4 mph - N/A   Mostly Cloudy
12:00 PM 46 °F - 44 °F 90% 30.28 in 19 mi WSW 8.9 mph - -   Partly Cloudy
12:00 PM 46.4 °F 42.4 °F 44.6 °F 93% 30.24 in 6.2 mi WSW 8.1 mph - N/A   Mostly Cloudy
12:30 PM 46.4 °F 41.1 °F 44.6 °F 93% 30.24 in 6.2 mi West 11.5 mph - N/A   Mostly Cloudy
1:00 PM 46.4 °F 41.1 °F 44.6 °F 93% 30.21 in 6.2 mi WSW 11.5 mph - N/A   Mostly Cloudy
1:30 PM 46.4 °F 41.5 °F 44.6 °F 93% 30.21 in 6.2 mi West 10.4 mph - N/A   Mostly Cloudy
2:00 PM 46.4 °F 41.9 °F 44.6 °F 93% 30.21 in 6.2 mi West 9.2 mph - N/A   Mostly Cloudy
2:30 PM 46.4 °F 41.5 °F 44.6 °F 93% 30.21 in 6.2 mi West 10.4 mph - N/A   Mostly Cloudy
3:00 PM 46.4 °F 41.5 °F 44.6 °F 93% 30.21 in 6.2 mi West 10.4 mph - N/A   Mostly Cloudy
3:30 PM 46.4 °F 41.5 °F 42.8 °F 87% 30.21 in 6.2 mi West 10.4 mph - N/A   Mostly Cloudy
4:00 PM 46.4 °F 41.5 °F 42.8 °F 87% 30.21 in 6.2 mi West 10.4 mph - N/A   Mostly Cloudy
4:30 PM 46.4 °F 42.9 °F 42.8 °F 87% 30.21 in 6.2 mi West 6.9 mph - N/A   Mostly Cloudy
5:00 PM 44.6 °F 40.7 °F 42.8 °F 93% 30.21 in 6.2 mi WNW 6.9 mph - N/A   Mostly Cloudy
5:30 PM 44.6 °F 41.4 °F 42.8 °F 93% 30.21 in 6.2 mi West 5.8 mph - N/A   Mostly Cloudy
6:00 PM 43 °F - 41 °F 90% 30.24 in 19 mi West 6.7 mph - -   Scattered Clouds
6:00 PM 42.8 °F 39.3 °F 41.0 °F 93% 30.21 in 6.2 mi West 5.8 mph - N/A   Mostly Cloudy
6:30 PM 44.6 °F 40.2 °F 42.8 °F 93% 30.21 in 6.2 mi WNW 8.1 mph - N/A   Mostly Cloudy
7:00 PM 44.6 °F 40.7 °F 41.0 °F 87% 30.21 in 6.2 mi WNW 6.9 mph - N/A   Mostly Cloudy
7:30 PM 44.6 °F 40.2 °F 42.8 °F 93% 30.21 in 6.2 mi WNW 8.1 mph - N/A   Mostly Cloudy
8:00 PM 44.6 °F 40.7 °F 42.8 °F 93% 30.21 in 6.2 mi West 6.9 mph - N/A   Mostly Cloudy
8:30 PM 44.6 °F 39.7 °F 41.0 °F 87% 30.21 in 6.2 mi NW 9.2 mph - N/A   Mostly Cloudy
9:00 PM 44.6 °F 40.2 °F 41.0 °F 87% 30.21 in 6.2 mi NNW 8.1 mph - N/A   Mostly Cloudy
9:30 PM 42.8 °F 38.6 °F 41.0 °F 93% 30.21 in 6.2 mi North 6.9 mph - N/A   Mostly Cloudy
10:00 PM 42.8 °F 39.3 °F 41.0 °F 93% 30.21 in 6.2 mi North 5.8 mph - N/A   Mostly Cloudy
10:30 PM 42.8 °F 38.0 °F 42.8 °F 100% 30.21 in 6.2 mi NNE 8.1 mph - N/A   Mostly Cloudy
11:00 PM 42.8 °F 38.6 °F 41.0 °F 93% 30.21 in 6.2 mi NNE 6.9 mph - N/A   Mostly Cloudy
11:30 PM 42.8 °F 38.0 °F 41.0 °F 93% 30.24 in 6.2 mi NNE 8.1 mph - N/A   Mostly Cloudy